| time (UTC) | temp F | wind direction | speed MPH | gust MPH | rain 1hr in | rain 24hr in | rain mn in | humidity % | barometer mb |
| 20260507203025 | 44 | 335 | 1.0 | 2.0 | 0.00 | 0.00 | 0.00 | 62 | 1019.4 |
| 20260507201522 | 45 | 333 | 1.0 | 4.0 | 0.00 | 0.00 | 0.00 | 60 | 1019.3 |
| 20260507200018 | 46 | 327 | 0.0 | 4.0 | 0.00 | 0.00 | 0.00 | 61 | 1019.3 |
| 20260507194519 | 46 | 275 | 0.0 | 0.0 | 0.00 | 0.00 | 0.00 | 59 | 1019.2 |
| 20260507193017 | 46 | 290 | 0.0 | 1.0 | 0.00 | 0.00 | 0.00 | 59 | 1019.0 |
| 20260507191514 | 47 | 263 | 0.0 | 3.0 | 0.00 | 0.00 | 0.00 | 57 | 1018.9 |
| 20260507190013 | 48 | 251 | 0.0 | 2.0 | 0.00 | 0.00 | 0.00 | 55 | 1018.6 |
| 20260507184512 | 49 | 254 | 0.0 | 2.0 | 0.00 | 0.00 | 0.00 | 53 | 1018.4 |
| 20260507183013 | 50 | 224 | 0.0 | 3.0 | 0.00 | 0.00 | 0.00 | 50 | 1018.4 |
| 20260507181510 | 51 | 292 | 1.0 | 4.0 | 0.00 | 0.00 | 0.00 | 46 | 1018.3 |
| 20260507180015 | 52 | 313 | 1.0 | 6.0 | 0.00 | 0.00 | 0.00 | 45 | 1018.2 |
| 20260507174511 | 53 | 243 | 0.0 | 7.0 | 0.00 | 0.00 | 0.00 | 43 | 1018.1 |
| 20260507173020 | 54 | 56 | 1.0 | 4.0 | 0.00 | 0.00 | 0.00 | 43 | 1018.0 |
| 20260507171510 | 55 | 329 | 1.0 | 8.0 | 0.00 | 0.00 | 0.00 | 40 | 1017.9 |
| 20260507170009 | 55 | 281 | 0.0 | 5.0 | 0.00 | 0.00 | 0.00 | 41 | 1017.8 |
| 20260507164508 | 56 | 314 | 2.0 | 7.0 | 0.00 | 0.00 | 0.00 | 39 | 1017.7 |
| 20260507163010 | 56 | 268 | 1.0 | 8.0 | 0.00 | 0.00 | 0.00 | 39 | 1017.6 |
| 20260507161507 | 56 | 301 | 1.0 | 7.0 | 0.00 | 0.00 | 0.00 | 41 | 1017.7 |
| 20260507160007 | 56 | 270 | 1.0 | 7.0 | 0.00 | 0.00 | 0.00 | 41 | 1017.6 |
| 20260507154507 | 57 | 330 | 2.0 | 8.0 | 0.00 | 0.00 | 0.00 | 39 | 1017.6 |
| 20260507153006 | 56 | 66 | 1.0 | 9.0 | 0.00 | 0.00 | 0.00 | 37 | 1017.6 |
| 20260507151505 | 57 | 268 | 2.0 | 6.0 | 0.00 | 0.00 | 0.00 | 38 | 1017.6 |
| 20260507150010 | 57 | 278 | 3.0 | 10.0 | 0.00 | 0.00 | 0.00 | 35 | 1017.5 |
| 20260507144631 | 57 | 279 | 3.0 | 9.0 | 0.00 | 0.00 | 0.00 | 37 | 1017.5 |
| 20260507143002 | 58 | 264 | 3.0 | 9.0 | 0.00 | 0.00 | 0.00 | 35 | 1017.5 |
| 20260507141604 | 59 | 348 | 2.0 | 8.0 | 0.00 | 0.00 | 0.00 | 38 | 1017.5 |
| 20260507134605 | 57 | 273 | 3.0 | 11.0 | 0.00 | 0.00 | 0.00 | 40 | 1017.4 |
| 20260507133132 | 58 | 316 | 3.0 | 9.0 | 0.00 | 0.00 | 0.00 | 45 | 1017.5 |
| 20260507131556 | 57 | 253 | 3.0 | 10.0 | 0.00 | 0.00 | 0.00 | 45 | 1017.4 |
| 20260507130107 | 58 | 321 | 3.0 | 10.0 | 0.00 | 0.00 | 0.00 | 48 | 1017.3 |
| 20260507124555 | 58 | 227 | 3.0 | 8.0 | 0.00 | 0.00 | 0.00 | 47 | 1017.3 |
| 20260507123053 | 57 | 332 | 2.0 | 10.0 | 0.00 | 0.00 | 0.00 | 48 | 1017.1 |
| 20260507121605 | 57 | 246 | 3.0 | 9.0 | 0.00 | 0.00 | 0.00 | 48 | 1017.0 |
| 20260507120058 | 58 | 123 | 2.0 | 11.0 | 0.00 | 0.00 | 0.00 | 49 | 1017.0 |
| 20260507114633 | 58 | 282 | 2.0 | 8.0 | 0.00 | 0.00 | 0.00 | 48 | 1017.0 |
| 20260507113049 | 56 | 332 | 2.0 | 6.0 | 0.00 | 0.00 | 0.00 | 47 | 1016.9 |
| 20260507111548 | 57 | 9 | 1.0 | 8.0 | 0.00 | 0.00 | 0.00 | 51 | 1017.1 |
| 20260507110045 | 55 | 280 | 2.0 | 8.0 | 0.00 | 0.00 | 0.00 | 53 | 1017.0 |
| 20260507104544 | 55 | 292 | 2.0 | 7.0 | 0.00 | 0.00 | 0.00 | 52 | 1017.0 |
| 20260507103040 | 55 | 347 | 3.0 | 8.0 | 0.00 | 0.00 | 0.00 | 53 | 1016.9 |
| 20260507101543 | 56 | 256 | 2.0 | 8.0 | 0.00 | 0.00 | 0.00 | 53 | 1016.7 |
| 20260507100036 | 56 | 319 | 2.0 | 10.0 | 0.00 | 0.00 | 0.00 | 55 | 1016.6 |
| 20260507094534 | 56 | 239 | 1.0 | 8.0 | 0.00 | 0.00 | 0.00 | 58 | 1016.4 |
| 20260507093032 | 56 | 316 | 1.0 | 8.0 | 0.00 | 0.00 | 0.00 | 57 | 1016.2 |
| 20260507091538 | 54 | 267 | 2.0 | 9.0 | 0.00 | 0.00 | 0.00 | 52 | 1016.2 |
| 20260507090035 | 54 | 322 | 5.0 | 11.0 | 0.00 | 0.00 | 0.00 | 55 | 1016.2 |
| 20260507084527 | 54 | 236 | 3.0 | 8.0 | 0.00 | 0.00 | 0.00 | 58 | 1016.3 |
| 20260507083024 | 54 | 222 | 2.0 | 9.0 | 0.00 | 0.00 | 0.00 | 59 | 1016.2 |
| 20260507081518 | 52 | 240 | 5.0 | 11.0 | 0.00 | 0.00 | 0.00 | 61 | 1016.1 |
| 20260507080014 | 52 | 295 | 3.0 | 9.0 | 0.00 | 0.00 | 0.00 | 62 | 1016.0 |
| 20260507074511 | 51 | 258 | 7.0 | 12.0 | 0.00 | 0.00 | 0.00 | 63 | 1015.7 |
| 20260507073006 | 51 | 217 | 2.0 | 8.0 | 0.00 | 0.00 | 0.00 | 63 | 1015.7 |
| 20260507071502 | 51 | 239 | 5.0 | 9.0 | 0.00 | 0.00 | 0.00 | 63 | 1015.6 |
| 20260507070059 | 49 | 287 | 1.0 | 8.0 | 0.00 | 0.00 | 0.00 | 65 | 1015.5 |
| 20260507064559 | 48 | 338 | 0.0 | 7.0 | 0.00 | 0.00 | 0.00 | 67 | 1015.4 |
| 20260507063059 | 48 | 247 | 1.0 | 7.0 | 0.00 | 0.00 | 0.00 | 68 | 1015.3 |
| 20260507061552 | 47 | 263 | 2.0 | 8.0 | 0.00 | 0.00 | 0.00 | 68 | 1015.3 |
| 20260507060054 | 46 | 254 | 1.0 | 7.0 | 0.00 | 0.00 | 0.00 | 70 | 1015.2 |
| 20260507054546 | 45 | 233 | 4.0 | 6.0 | 0.00 | 0.00 | 0.00 | 74 | 1015.0 |
| 20260507053042 | 43 | 197 | 0.0 | 2.0 | 0.00 | 0.00 | 0.00 | 75 | 1015.0 |
| 20260507051541 | 41 | 177 | 1.0 | 3.0 | 0.00 | 0.00 | 0.00 | 79 | 1014.8 |
| 20260507050040 | 39 | 258 | 0.0 | 0.0 | 0.00 | 0.00 | 0.00 | 84 | 1014.7 |
| 20260507044539 | 37 | 258 | 0.0 | 0.0 | 0.00 | 0.00 | 0.00 | 89 | 1014.6 |
| 20260507043038 | 35 | 258 | 0.0 | 0.0 | 0.00 | 0.00 | 0.00 | 89 | 1014.4 |
| 20260507041535 | 34 | 258 | 0.0 | 0.0 | 0.00 | 0.00 | 0.00 | 89 | 1014.5 |
| 20260507040036 | 33 | 258 | 0.0 | 0.0 | 0.00 | 0.00 | 0.00 | 89 | 1014.5 |
| 20260507034535 | 33 | 258 | 0.0 | 0.0 | 0.00 | 0.00 | 0.00 | 88 | 1014.3 |
| 20260507033032 | 32 | 258 | 0.0 | 0.0 | 0.00 | 0.00 | 0.00 | 87 | 1014.2 |
| 20260507031529 | 32 | 258 | 0.0 | 0.0 | 0.00 | 0.00 | 0.00 | 86 | 1014.2 |
| 20260507030028 | 32 | 258 | 0.0 | 0.0 | 0.00 | 0.00 | 0.00 | 86 | 1014.2 |
| 20260507024527 | 32 | 258 | 0.0 | 0.0 | 0.00 | 0.00 | 0.00 | 86 | 1014.0 |
| 20260507023025 | 32 | 258 | 0.0 | 0.0 | 0.00 | 0.00 | 0.00 | 86 | 1014.0 |
| 20260507021525 | 32 | 258 | 0.0 | 0.0 | 0.00 | 0.00 | 0.00 | 86 | 1013.9 |
| 20260507020029 | 33 | 258 | 0.0 | 0.0 | 0.00 | 0.00 | 0.00 | 85 | 1013.7 |
| 20260507014528 | 33 | 258 | 0.0 | 0.0 | 0.00 | 0.00 | 0.00 | 83 | 1013.7 |
| 20260507013039 | 33 | 258 | 0.0 | 1.0 | 0.00 | 0.00 | 0.00 | 83 | 1013.7 |
| 20260507011518 | 34 | 258 | 0.0 | 0.0 | 0.00 | 0.00 | 0.00 | 81 | 1013.5 |
| 20260507010115 | 34 | 258 | 0.0 | 2.0 | 0.00 | 0.00 | 0.00 | 80 | 1013.4 |
| 20260507004512 | 34 | 261 | 0.0 | 1.0 | 0.00 | 0.00 | 0.00 | 78 | 1013.3 |
| 20260507003008 | 35 | 261 | 0.0 | 1.0 | 0.00 | 0.00 | 0.00 | 78 | 1013.2 |
| 20260507001509 | 35 | 261 | 0.0 | 1.0 | 0.00 | 0.00 | 0.00 | 77 | 1013.2 |
| 20260507000004 | 36 | 261 | 0.0 | 2.0 | 0.00 | 0.00 | 0.00 | 76 | 1013.1 |
| 20260506234501 | 37 | 274 | 0.0 | 0.0 | 0.00 | 0.00 | 0.00 | 75 | 1013.2 |
| 20260506233110 | 38 | 274 | 0.0 | 1.0 | 0.00 | 0.00 | 0.00 | 72 | 1013.2 |
| 20260506231601 | 38 | 272 | 0.0 | 2.0 | 0.00 | 0.00 | 0.00 | 69 | 1013.2 |
| 20260506230054 | 39 | 252 | 0.0 | 2.0 | 0.00 | 0.00 | 0.00 | 67 | 1013.1 |
| 20260506224551 | 41 | 283 | 0.0 | 2.0 | 0.00 | 0.00 | 0.00 | 63 | 1012.9 |
| 20260506223047 | 42 | 290 | 0.0 | 3.0 | 0.00 | 0.00 | 0.00 | 61 | 1013.0 |
| 20260506221543 | 43 | 306 | 0.0 | 3.0 | 0.00 | 0.00 | 0.00 | 60 | 1012.9 |
| 20260506220041 | 43 | 297 | 0.0 | 4.0 | 0.00 | 0.00 | 0.00 | 61 | 1012.8 |
| 20260506214542 | 43 | 340 | 0.0 | 5.0 | 0.00 | 0.00 | 0.00 | 62 | 1012.8 |
| 20260506213051 | 43 | 342 | 0.0 | 2.0 | 0.00 | 0.00 | 0.00 | 65 | 1012.7 |
| 20260506211538 | 42 | 319 | 0.0 | 2.0 | 0.00 | 0.00 | 0.00 | 68 | 1012.5 |
| 20260506210037 | 42 | 300 | 0.0 | 2.0 | 0.00 | 0.00 | 0.00 | 69 | 1012.4 |
| 20260506204538 | 41 | 304 | 0.0 | 0.0 | 0.00 | 0.00 | 0.00 | 69 | 1012.3 |